Location: Moena
(46.3667°N, 11.6500°E)
Time: 10:25:33
(UTC+00:00)

GP-B - Pass Details

Date: 20 June 2021
Orbit: 631 x 635 km, 89.8° (Epoch: 28 July)

Event Time Altitude Azimuth Distance (km) Brightness Sun altitude
Rises 21:41:36 0° 21° (NNE) 2,943 7.3 -17.0°
Reaches altitude 10° 21:45:14 10° 51° (NE) 2,027 5.9 -17.3°
Maximum altitude 21:47:02 12° 76° (ENE) 1,876 5.5 -17.4°
Enters shadow 21:48:36 11° 97° (E) 1,983 5.4 -17.5°
